Powrót do katalogu

EXPLORER 11

AktywnyNaukaLEO
NORAD 107·PAYLOAD·🇺🇸 United States

Wystrzelony Apr 27, 1961 z Cape Canaveral Space Force Station

Loading…

Następne Przeloty (najbliższe 24 godziny)

TLE

ŚwieżeSource: Space-Track

Epoka: Sep 10, 2026, 12:12 UTC

1   107U 61013A   26253.50859550  .00000777  00000-0  73702-4 0  9998
2   107  28.7758 184.3105 0491776 205.5545 151.9933 14.22486596288656

Śledź EXPLORER 11 w czasie rzeczywistym z AllMySat

Download on the App Store